Location: Anglesey
(53.1800°N, 4.2200°W)
Time: 08:13:05
(UTC+00:00)

Envisat - Visible Passes

Search period start: 18 January 2018 00:00
Search period end: 28 January 2018 00:00
Orbit: 764 x 766 km, 98.2° (Epoch: 17 January)

Date Brightness Start Highest point End Pass type
(mag) Time Alt. Az. Time Alt. Az. Time Alt. Az.
18 Jan 3.9 18:22:36 25° ENE 18:23:38 27° ENE 18:27:50 10° N visible
18 Jan 3.5 20:02:47 58° WNW 20:02:47 58° WNW 20:07:24 10° NNW visible
18 Jan 6.0 21:42:59 10° WNW 21:42:59 10° WNW 21:43:11 10° WNW visible
19 Jan 4.5 17:45:13 13° ENE 17:47:22 16° NE 17:50:20 10° NNE visible
19 Jan 2.8 19:25:25 72° E 19:25:34 72° ENE 19:30:40 10° NNW visible
19 Jan 5.3 21:05:36 20° W 21:05:36 20° W 21:08:56 10° NW visible
20 Jan 5.8 07:24:14 10° NE 07:27:23 16° E 07:30:29 10° SE visible
20 Jan 3.4 18:48:01 35° E 18:49:00 39° ENE 18:53:43 10° N visible
20 Jan 4.2 20:28:12 38° W 20:28:12 38° W 20:32:49 10° NNW visible
21 Jan 4.1 18:10:36 18° E 18:12:36 23° ENE 18:16:32 10° N visible
21 Jan 3.1 19:50:48 70° SW 19:51:11 74° WSW 19:56:18 10° NNW visible
21 Jan 5.8 21:30:59 13° W 21:31:07 13° W 21:33:24 10° WNW visible
22 Jan 4.7 17:33:57 10° ENE 17:36:24 14° NE 17:38:51 10° NNE visible
22 Jan 2.9 19:13:23 48° ESE 19:14:28 60° ENE 19:19:30 10° N visible
22 Jan 5.0 20:53:34 24° W 20:53:53 25° W 20:58:03 10° NW visible
23 Jan 6.0 07:13:40 10° NE 07:16:04 13° E 07:18:28 10° ESE visible
23 Jan 3.6 18:35:58 25° ESE 18:37:57 33° ENE 18:42:29 10° N visible
23 Jan 3.9 20:16:09 43° WSW 20:16:52 46° W 20:21:47 10° NNW visible
24 Jan 4.3 17:58:32 12° E 18:01:37 20° NE 18:05:11 10° N visible
24 Jan 2.9 19:38:43 51° SSE 19:40:02 88° WSW 19:45:10 10° NNW visible
24 Jan 5.6 21:18:54 15° W 21:19:50 16° W 21:22:52 10° NW visible
25 Jan 4.8 17:23:44 10° ENE 17:25:27 12° NE 17:27:10 10° NNE visible
25 Jan 3.1 19:01:17 31° ESE 19:03:23 50° ENE 19:08:19 10° N visible
25 Jan 4.7 20:41:28 27° WSW 20:42:39 30° W 20:47:06 10° NNW visible
26 Jan 6.3 07:03:38 10° ENE 07:04:46 11° E 07:05:52 10° E visible
26 Jan 3.8 18:23:51 16° ESE 18:26:55 28° ENE 18:31:13 10° N visible
26 Jan 3.5 20:04:02 38° SSW 20:05:41 56° W 20:10:43 10° NNW visible
27 Jan 4.4 17:47:28 10° E 17:50:38 17° NE 17:53:48 10° NNE visible
27 Jan 2.8 19:26:34 33° SSE 19:28:54 78° ENE 19:34:01 10° NNW visible
27 Jan 5.4 21:06:46 16° WSW 21:08:32 19° W 21:12:08 10° NW visible
